Flag for Australia Weather past 2 weeks in Mandurah, Western Australia, Australia

Now
60 °F

Cool.


Feels Like: 59 °F
Forecast: 56 / 74 °F
Wind: 6 mph from Southeast

Location: Mandurah Aws

Current Time: Oct 24, 2014 at 4:15:20 AM

Latest Report: Oct 24, 2014 at 3:00 AM


Visibility: N/A

Pressure: 30.05 "Hg

Humidity: 80%

Dew point: 54 °F

Location of MandurahLocation

Historic Weather in Mandurah — Graph

°F

Mandurah temperature yesterday

Maximum temperature yesterday: 70 °F (at 11:00 AM)
Minimum temperature yesterday: 63 °F (at 3:00 AM)
Average temperature yesterday: 66 °F

Past Weeks' High & Low Weather Summary

 TemperatureHumidityPressure
High90 °F (Oct 15, 3:00 PM)98% (Oct 21, 6:00 AM)30.27 "Hg (Oct 21, 6:00 AM)
Low51 °F (Oct 13, 6:00 AM)18% (Oct 14, 2:00 PM)29.72 "Hg (Oct 16, 5:00 AM)
Average65 °F65%30.04 "Hg
* Reported Oct 9 3:00 AM — Oct 24 3:00 AM, Mandurah, Weather by CustomWeather, © 2014

Note: Actual official high and low records may vary slightly from our data, if they occured in-between our weather recording intervals... More about our weather records

Advertising

Mandurah weather history for previous 24 hours

 ConditionsComfort  
Time TempWeatherWind HumidityBarometerVisibility
3:00 AM
Oct 24
60 °FCool.6 mph80%30.05 "HgN/A
2:00 AM60 °FCool.6 mph81%30.05 "HgN/A
12:00 AM61 °FCool.6 mph94%30.05 "HgN/A
11:00 PM
Oct 23
63 °FMild.5 mph88%30.05 "HgN/A
9:00 PM64 °FMild.7 mph80%30.06 "HgN/A
8:00 PM65 °FMild.7 mph75%30.06 "HgN/A
6:00 PM67 °FMild.8 mph62%30.02 "HgN/A
5:00 PM68 °FMild.12 mph64%30.02 "HgN/A
3:00 PM69 °FMild.14 mph60%30.01 "HgN/A
2:00 PM67 °FMild.10 mph68%30.01 "HgN/A
12:00 PM69 °FMild.15 mph68%30.00 "HgN/A
11:00 AM70 °FMild.14 mph64%30.01 "HgN/A
9:00 AM69 °FMild.10 mph69%29.98 "HgN/A
8:00 AM67 °FMild.12 mph71%29.96 "HgN/A
6:00 AM64 °FMild.10 mph79%29.93 "HgN/A
5:00 AM64 °FMild.10 mph80%29.91 "HgN/A
Weather by CustomWeather, © 2014

See weather overviewHow to use our weather pages